Date_and_time,latitude,longitude,wind_speed,RelWindDirFrom,WindDirFrom,air_pressure,air_temperature,relative_humidity,Temp,platform_speed_wrt_ground,air_pressure_at_mean_sea_level,platform_orientation
2019-10-25 23:50,50.6304216666667,-96.980765,9.8,11.0,162,977.80,7.2,77,5.25,0.0,1004.58,360.0
2019-10-26 00:00,50.6304216666667,-96.9807633333333,10.1,11.2,157,977.57,7.0,80,5.25,0.0,1004.36,310.6
2019-10-26 00:10,50.6304233333333,-96.9807633333333,9.6,11.4,150,977.45,6.5,85,5.26,0.0,1004.27,310.6
2019-10-26 00:20,50.630425,-96.9807616666667,10.1,12.7,149,977.23,6.4,85,5.26,0.0,1004.05,310.6
2019-10-26 00:30,50.6304266666667,-96.9807633333333,10.9,13.1,147,977.11,6.2,86,5.27,0.0,1003.93,310.6
2019-10-26 00:40,50.6304283333333,-96.980765,9.3,11.5,149,977.10,6.0,89,5.28,0.0,1003.94,310.6
2019-10-26 00:50,50.6304283333333,-96.980765,9.5,11.9,147,976.94,5.8,91,5.30,0.0,1003.79,310.6
2019-10-26 01:00,50.6304283333333,-96.980765,9.2,11.7,144,976.72,5.8,91,5.32,0.0,1003.55,90.0
2019-10-26 01:10,50.6304283333333,-96.980765,8.9,10.5,143,976.56,5.8,92,5.33,0.0,1003.39,90.0
2019-10-26 01:20,50.63043,-96.980765,9.1,10.9,142,976.35,5.9,91,5.33,0.0,1003.19,90.0
2019-10-26 01:30,50.63043,-96.9807666666667,9.3,10.8,141,976.24,5.9,91,5.34,0.0,1003.13,90.0
2019-10-26 01:40,50.630455,-96.9807616666667,10.4,12.5,139,976.01,5.9,91,5.35,0.0,1002.89,90.0
2019-10-26 01:50,50.63044,-96.9807616666667,9.3,11.9,146,975.78,5.8,91,5.36,0.0,1002.66,90.0
2019-10-26 02:00,50.6304366666667,-96.9807616666667,9.4,11.7,144,975.46,5.8,92,5.36,0.0,1002.36,360.0
2019-10-26 02:10,50.630435,-96.980765,9.9,12.5,149,975.19,5.9,90,5.37,0.0,1002.08,360.0
2019-10-26 02:20,50.6304316666667,-96.9807666666667,9.8,12.7,150,974.93,5.8,92,5.37,0.0,1001.83,360.0
2019-10-26 02:30,50.6304283333333,-96.980765,9.8,12.0,148,974.67,5.7,93,5.36,0.0,1001.57,360.0
2019-10-26 02:40,50.6304266666667,-96.980765,10.2,12.9,147,974.40,5.8,93,5.36,0.0,1001.31,360.0
2019-10-26 02:50,50.6304283333333,-96.98076,10.9,13.0,145,974.22,5.8,92,5.36,0.0,1001.11,360.0
2019-10-26 03:00,50.6304233333333,-96.9807583333333,11.1,13.5,147,973.97,6.0,92,5.36,0.0,1000.86,12.6
2019-10-26 03:10,50.6304266666667,-96.9807633333333,10.6,13.0,150,973.80,6.0,94,5.35,0.0,1000.68,12.6
2019-10-26 03:20,50.6304266666667,-96.9807683333333,10.9,12.7,151,973.68,6.2,92,5.34,0.0,1000.55,12.6
2019-10-26 03:30,50.630425,-96.9807666666667,11.4,13.5,147,973.36,6.5,90,5.34,0.0,1000.20,12.6
2019-10-26 03:40,50.630425,-96.9807666666667,11.0,12.8,148,973.14,6.6,89,5.35,0.0,999.97,12.6
2019-10-26 03:50,50.6304266666667,-96.9807666666667,11.4,13.1,146,972.82,6.7,89,5.34,0.0,999.64,12.6
2019-10-26 04:00,50.630425,-96.980765,11.8,14.3,148,972.62,6.7,89,5.34,0.0,999.43,90.0
2019-10-26 04:10,50.6304466666667,-96.9807666666667,12.7,15.6,151,972.49,6.7,89,5.33,0.0,999.30,90.0
2019-10-26 04:20,50.6304333333333,-96.9808033333333,13.0,15.2,154,972.29,6.8,88,5.32,0.0,999.09,90.0
2019-10-26 04:30,50.6304333333333,-96.980765,13.8,15.9,155,972.04,6.8,88,5.33,0.0,998.83,90.0
2019-10-26 04:40,50.63043,-96.9807633333333,13.6,15.5,155,971.81,6.8,88,5.33,0.0,998.59,90.0
2019-10-26 04:50,50.6304316666667,-96.9807633333333,13.9,16.4,154,971.58,6.7,89,5.33,0.0,998.36,90.0
2019-10-26 05:00,50.6304316666667,-96.980765,13.0,15.2,156,971.32,6.8,87,5.32,0.0,998.08,228.3
2019-10-26 05:10,50.630435,-96.9807616666667,12.3,14.5,154,971.04,6.9,87,5.32,0.0,997.78,228.3
2019-10-26 05:20,50.63043,-96.9807833333333,12.6,14.9,150,970.74,6.5,90,5.32,0.0,997.47,228.3
2019-10-26 05:30,50.6304333333333,-96.9807666666667,12.4,14.5,150,970.39,6.4,91,5.32,0.0,997.11,228.3
2019-10-26 05:40,50.6304266666667,-96.9807616666667,13.2,15.7,155,970.25,6.4,90,5.38,0.0,996.97,228.3
2019-10-26 05:50,50.6304266666667,-96.9807616666667,12.2,14.3,154,970.03,6.6,89,5.32,0.0,996.74,228.3
2019-10-26 06:00,50.630425,-96.98076,12.5,15.7,158,969.88,6.8,87,5.32,0.0,996.57,0.0
2019-10-26 06:10,50.630425,-96.9807633333333,14.5,17.8,163,969.65,8.0,78,5.32,0.0,996.27,0.0
2019-10-26 06:20,50.630425,-96.9807633333333,14.6,17.6,161,969.46,8.2,76,5.31,0.0,996.07,0.0
2019-10-26 06:30,50.630425,-96.9807633333333,13.2,16.1,162,969.33,8.0,77,5.30,0.0,995.94,0.0
2019-10-26 06:40,50.630425,-96.9807633333333,14.7,18.2,159,969.08,7.9,77,5.29,0.0,995.69,0.0
2019-10-26 06:50,50.630435,-96.98077,14.8,17.4,159,968.94,7.8,78,5.29,0.0,995.54,0.0
2019-10-26 07:00,50.6304333333333,-96.98076,13.8,17.2,161,968.90,8.0,77,5.29,0.0,995.50,48.3
2019-10-26 07:10,50.6304133333333,-96.980745,13.9,16.5,160,968.77,8.2,75,5.29,0.0,995.37,48.3
2019-10-26 07:20,50.630435,-96.9807583333333,15.0,18.4,157,968.47,8.2,75,5.31,0.0,995.06,48.3
2019-10-26 07:30,50.63043,-96.9807583333333,15.7,19.5,160,968.32,8.5,74,5.32,0.0,994.90,48.3
2019-10-26 07:40,50.6304283333333,-96.9807583333333,15.6,18.5,160,968.17,8.6,73,5.32,0.0,994.73,48.3
2019-10-26 07:50,50.630425,-96.9807583333333,15.7,18.3,164,968.11,8.6,72,5.34,0.0,994.65,48.3
2019-10-26 08:00,50.6304266666667,-96.98076,16.8,21.2,165,968.02,8.8,71,5.35,0.0,994.50,167.4
2019-10-26 08:10,50.6304266666667,-96.98076,16.0,23.0,167,967.98,8.8,71,5.34,0.0,994.45,167.4
2019-10-26 08:20,50.6304266666667,-96.98076,17.5,21.6,169,967.73,8.9,69,5.33,0.0,994.20,167.4
2019-10-26 08:30,50.6304283333333,-96.98076,17.9,22.4,167,967.54,8.8,69,5.31,0.0,994.01,167.4
2019-10-26 08:40,50.6304283333333,-96.98076,17.8,21.7,166,967.29,8.8,69,5.29,0.0,993.76,167.4
2019-10-26 08:50,50.63043,-96.98076,18.0,21.6,163,966.88,8.7,70,5.28,0.0,993.34,167.4
2019-10-26 09:00,50.6304233333333,-96.9807633333333,17.1,23.7,159,966.64,8.4,71,5.28,0.0,993.09,270.0
2019-10-26 09:10,50.6304266666667,-96.9807733333333,14.8,18.2,160,966.77,8.1,73,5.28,0.0,993.24,270.0
2019-10-26 09:20,50.6304283333333,-96.9807766666667,13.0,16.9,162,966.83,8.1,72,5.27,0.0,993.29,270.0
2019-10-26 09:30,50.6304266666667,-96.980775,13.4,19.9,171,966.96,8.5,70,5.27,0.0,993.40,270.0
2019-10-26 09:40,50.6304266666667,-96.9807733333333,16.2,22.5,175,966.95,8.7,68,5.26,0.0,993.37,270.0
2019-10-26 09:50,50.630425,-96.98077,18.1,23.5,175,966.78,8.6,69,5.26,0.0,993.20,270.0
2019-10-26 10:00,50.6304266666667,-96.98077,18.9,23.5,173,966.66,8.3,71,5.26,0.0,993.09,192.6
2019-10-26 10:10,50.630425,-96.98077,17.3,23.4,174,966.70,8.2,71,5.26,0.0,993.13,192.6
2019-10-26 10:20,50.630425,-96.98077,17.7,21.8,175,966.65,8.1,72,5.27,0.0,993.09,192.6
2019-10-26 10:30,50.6304266666667,-96.9807683333333,17.6,23.0,175,966.55,7.8,74,5.28,0.0,993.00,192.6
2019-10-26 10:40,50.6304266666667,-96.9807666666667,16.2,22.1,175,966.50,7.6,75,5.28,0.0,992.96,192.6
2019-10-26 10:50,50.630425,-96.9807516666667,16.7,22.8,175,966.42,7.6,75,5.28,0.0,992.89,192.6
2019-10-26 11:00,50.6304266666667,-96.980765,16.8,23.2,178,966.44,7.6,75,5.28,0.0,992.93,270.0
2019-10-26 11:10,50.6304216666667,-96.98076,17.0,23.0,177,966.43,7.6,75,5.28,0.0,992.92,270.0
2019-10-26 11:20,50.6304216666667,-96.980765,15.8,20.4,176,966.53,7.4,76,5.28,0.0,993.01,270.0
2019-10-26 11:30,50.6304116666667,-96.9807433333333,14.4,19.7,178,966.72,7.3,77,5.27,0.0,993.21,270.0
2019-10-26 11:40,50.6304133333333,-96.9807533333333,13.9,18.2,181,966.88,7.2,78,5.28,0.0,993.38,270.0
2019-10-26 11:50,50.630415,-96.9807566666667,13.3,16.8,181,967.00,7.1,78,5.28,0.0,993.51,270.0
2019-10-26 12:00,50.6304133333333,-96.9807583333333,12.3,16.0,184,967.18,7.1,78,5.28,0.0,993.71,165.5
2019-10-26 12:10,50.630425,-96.9807866666667,11.5,14.6,187,967.38,7.1,78,5.28,0.0,993.92,165.5
2019-10-26 12:20,50.6304283333333,-96.9807833333333,10.4,13.5,189,967.39,7.0,79,5.28,0.0,993.95,165.5
2019-10-26 12:30,50.6304316666667,-96.9807766666667,9.5,11.6,183,967.26,6.7,81,5.28,0.0,993.84,165.5
2019-10-26 12:40,50.6304333333333,-96.9807733333333,8.4,10.3,195,967.46,6.7,80,5.29,0.0,994.04,165.5
2019-10-26 12:50,50.6304283333333,-96.98076,8.3,10.0,195,967.47,6.8,80,5.29,0.0,994.05,165.5
2019-10-26 13:00,50.6304283333333,-96.9807733333333,9.1,11.3,194,968.02,6.9,80,5.29,0.0,994.61,270.0
2019-10-26 13:10,50.6304016666667,-96.9807666666667,8.2,11.1,195,968.16,7.1,79,5.29,0.0,994.75,270.0
2019-10-26 13:20,50.6304466666667,-96.9807883333333,8.9,11.4,193,968.08,7.4,77,5.29,0.0,994.66,270.0
2019-10-26 13:30,50.6304366666667,-96.9807766666667,8.5,11.5,195,968.09,7.9,75,5.29,0.0,994.66,270.0
2019-10-26 13:40,50.630425,-96.98075,7.0,9.9,204,968.04,8.2,74,5.29,0.0,994.59,270.0
2019-10-26 13:50,50.6304183333333,-96.9807483333333,6.3,8.5,208,968.07,8.3,73,5.30,0.0,994.61,270.0
2019-10-26 14:00,50.6304316666667,-96.9807633333333,7.0,9.3,201,968.33,8.3,73,5.30,0.0,994.88,360.0
2019-10-26 14:10,50.63043,-96.9807616666667,7.2,9.9,205,968.69,8.3,74,5.31,0.0,995.27,360.0
2019-10-26 14:20,50.6304283333333,-96.980765,8.3,11.5,212,969.07,8.4,73,5.31,0.0,995.66,360.0
2019-10-26 14:30,50.63041,-96.9808083333333,8.5,11.3,216,969.25,8.9,71,5.31,0.0,995.82,360.0
2019-10-26 14:40,50.6304116666667,-96.9807683333333,8.9,12.7,215,969.61,9.3,69,5.32,0.0,996.17,360.0
2019-10-26 14:50,50.6304116666667,-96.9808,9.5,14.9,215,969.85,9.6,68,5.32,0.0,996.39,360.0
2019-10-26 15:00,50.63041,-96.9807833333333,9.4,14.3,235,969.74,9.9,67,5.32,0.0,996.25,252.3
2019-10-26 15:10,50.6304133333333,-96.98077,9.0,15.5,245,969.76,10.2,65,5.33,0.0,996.25,252.3
2019-10-26 15:20,50.630415,-96.98077,11.5,17.1,235,969.99,10.4,64,5.33,0.0,996.45,252.3
2019-10-26 15:30,50.63043,-96.9807766666667,11.2,16.3,219,970.25,10.3,65,5.33,0.0,996.71,252.3
2019-10-26 15:40,50.6304216666667,-96.980775,11.4,17.8,220,970.48,10.4,64,5.35,0.0,996.94,252.3
2019-10-26 15:50,50.63042,-96.98077,11.8,19.5,235,970.47,10.5,63,5.36,0.0,996.93,252.3
2019-10-26 16:00,50.6304233333333,-96.98077,13.6,19.2,246,970.58,10.5,62,5.37,0.0,997.04,90.0
2019-10-26 16:10,50.6304233333333,-96.9807716666667,11.9,19.8,239,970.96,10.7,61,5.37,0.0,997.41,90.0
2019-10-26 16:20,50.6304233333333,-96.9807683333333,13.7,24.3,244,970.95,10.5,61,5.36,0.0,997.38,90.0
2019-10-26 16:30,50.6304216666667,-96.9807683333333,12.2,21.8,241,970.98,10.4,62,5.35,0.0,997.40,90.0
2019-10-26 16:40,50.6304216666667,-96.9807666666667,12.6,17.6,245,970.89,10.0,63,5.35,0.0,997.32,90.0
2019-10-26 16:50,50.6304533333333,-96.980785,9.5,15.1,245,971.03,9.8,64,5.36,0.0,997.46,90.0
2019-10-26 17:00,50.630425,-96.9807666666667,10.3,17.6,248,971.23,9.7,64,5.36,0.0,997.65,142.0
2019-10-26 17:10,50.6304216666667,-96.9807666666667,11.8,18.0,262,971.44,9.5,64,5.37,0.0,997.87,142.0
2019-10-26 17:20,50.6304183333333,-96.9807616666667,13.6,20.5,236,971.81,9.1,64,5.37,0.0,998.27,142.0
2019-10-26 17:30,50.6304183333333,-96.9807616666667,14.4,20.4,233,972.13,8.9,62,5.39,0.0,998.60,142.0
2019-10-26 17:40,50.63042,-96.9807633333333,15.2,22.5,231,972.49,8.8,63,5.41,0.0,998.98,142.0
2019-10-26 17:50,50.6304183333333,-96.9807616666667,14.9,20.9,228,972.82,8.6,64,5.42,0.0,999.32,142.0
2019-10-26 18:00,50.63042,-96.9807683333333,13.4,20.8,234,973.27,8.6,64,5.43,0.0,999.78,49.4
2019-10-26 18:10,50.6304033333333,-96.9807616666667,12.2,18.0,245,973.26,8.6,63,5.43,0.0,999.77,49.4
2019-10-26 18:20,50.6304116666667,-96.9807683333333,12.6,21.7,240,973.40,8.5,62,5.45,0.0,999.92,49.4
2019-10-26 18:30,50.630415,-96.9807716666667,11.3,20.2,253,973.41,8.4,62,5.46,0.0,999.96,49.4
2019-10-26 18:40,50.6304133333333,-96.9807666666667,10.3,19.6,249,973.47,8.5,62,5.47,0.0,1000.03,49.4
2019-10-26 18:50,50.630415,-96.980765,12.2,19.9,257,973.50,8.5,61,5.47,0.0,1000.07,49.4
2019-10-26 19:00,50.6304283333333,-96.9807633333333,11.5,20.3,254,973.54,8.5,60,5.48,0.0,1000.12,90.0
2019-10-26 19:10,50.630415,-96.9807583333333,10.8,17.7,248,973.52,8.8,59,5.49,0.0,1000.09,90.0
2019-10-26 19:20,50.6304533333333,-96.98078,12.6,22.4,252,973.63,8.9,58,5.50,0.0,1000.22,90.0
2019-10-26 19:30,50.6304383333333,-96.98077,14.2,22.6,256,974.00,9.0,58,5.51,0.0,1000.60,90.0
2019-10-26 19:40,50.6304366666667,-96.9807683333333,14.6,21.5,254,974.22,8.7,58,5.52,0.0,1000.84,90.0
2019-10-26 19:50,50.6304366666667,-96.9807683333333,12.1,18.8,251,974.35,8.5,60,5.53,0.0,1000.99,90.0
2019-10-26 20:00,50.6304216666667,-96.9807616666667,10.0,15.0,262,974.44,8.3,62,5.54,0.0,1001.09,167.4
2019-10-26 20:10,50.63042,-96.98076,11.7,18.9,267,974.59,7.8,63,5.55,0.0,1001.27,167.4
2019-10-26 20:20,50.63042,-96.98076,11.5,19.6,257,974.88,7.6,63,5.55,0.0,1001.58,167.4
2019-10-26 20:30,50.63042,-96.98076,12.9,21.1,259,974.79,7.9,60,5.56,0.0,1001.48,167.4
2019-10-26 20:40,50.63042,-96.9807616666667,14.3,20.6,266,974.87,7.1,63,5.56,0.0,1001.60,167.4
2019-10-26 20:50,50.63042,-96.9807633333333,12.9,22.6,273,975.06,6.5,65,5.57,0.0,1001.81,167.4
2019-10-26 21:00,50.63042,-96.9807616666667,14.4,23.1,272,975.28,6.3,63,5.57,0.0,1002.04,90.0
2019-10-26 21:10,50.630435,-96.980755,12.7,19.2,269,975.58,5.9,63,5.58,0.0,1002.36,90.0
2019-10-26 21:20,50.6304366666667,-96.980755,12.6,22.7,273,976.04,6.0,61,5.59,0.0,1002.83,90.0
2019-10-26 21:30,50.6304,-96.98077,11.3,17.6,264,976.55,5.7,62,5.61,0.0,1003.38,90.0
2019-10-26 21:40,50.6304116666667,-96.9807666666667,12.3,20.4,265,976.70,5.5,62,5.62,0.0,1003.55,90.0
2019-10-26 21:50,50.63042,-96.9807633333333,13.0,20.4,265,976.86,5.3,64,5.62,0.0,1003.73,90.0
2019-10-26 22:00,50.63042,-96.980765,10.9,18.0,270,976.97,5.2,65,5.62,0.0,1003.89,142.0
2019-10-26 22:10,50.6304183333333,-96.9807633333333,9.7,15.1,272,976.99,5.0,67,5.62,0.0,1003.91,142.0
2019-10-26 22:20,50.6304183333333,-96.9807633333333,11.2,20.5,274,977.09,4.9,67,5.62,0.0,1004.01,142.0
2019-10-26 22:30,50.6304166666667,-96.9807616666667,11.0,20.9,273,977.47,4.8,69,5.63,0.0,1004.45,142.0
2019-10-26 22:40,50.630415,-96.9807616666667,11.5,20.0,267,977.71,4.7,69,5.62,0.0,1004.73,142.0
2019-10-26 22:50,50.630415,-96.9807616666667,12.1,19.6,276,977.34,4.6,70,5.61,0.0,1004.36,142.0
2019-10-26 23:00,50.630415,-96.9807616666667,11.6,21.5,279,977.39,4.5,70,5.60,0.0,1004.44,360.0
2019-10-26 23:10,50.630415,-96.9807616666667,9.8,14.9,284,977.64,4.4,71,5.61,0.0,1004.70,360.0
2019-10-26 23:20,50.630415,-96.9807616666667,10.8,18.1,285,977.56,4.3,72,5.61,0.0,1004.63,360.0
2019-10-26 23:30,50.6304166666667,-96.98076,11.4,21.5,278,977.98,4.3,72,5.61,0.0,1005.07,360.0
